TimeICT,TemperatureF,Dew PointF,Humidity,Sea Level PressureIn,VisibilityMPH,Wind Direction,Wind SpeedMPH,Gust SpeedMPH,PrecipitationIn,Events,Conditions,WindDirDegrees,DateUTC
12:00 AM,82.4,77.0,84,29.77,5.0,Variable,3.5,-,N/A,,Mostly Cloudy,0,2013-04-16 17:00:00
12:30 AM,78.8,75.2,89,29.77,4.3,West,12.7,27.6,N/A,Rain,Rain,260,2013-04-16 17:30:00
1:00 AM,78,78,100,29.72,5,SW,3.5,,,Rain-Thunderstorm,Thunderstorms and Rain,220,2013-04-16 18:00:00
1:30 AM,77.0,73.4,89,29.77,1.2,Variable,4.6,-,N/A,Rain,Rain,0,2013-04-16 18:30:00
2:00 AM,77.0,73.4,89,29.74,3.1,Variable,4.6,17.3,N/A,Rain,Rain,0,2013-04-16 19:00:00
2:30 AM,75.2,73.4,94,29.77,3.1,NNW,13.8,33.4,N/A,Rain,Rain,330,2013-04-16 19:30:00
3:00 AM,75.2,73.4,94,29.74,4.3,North,5.8,-,N/A,Rain,Light Rain,350,2013-04-16 20:00:00
3:30 AM,75.2,73.4,94,29.74,4.3,Variable,3.5,-,N/A,,Mostly Cloudy,0,2013-04-16 20:30:00
4:00 AM,78.8,75.2,89,29.71,4.3,WSW,9.2,20.7,N/A,,Mostly Cloudy,240,2013-04-16 21:00:00
4:30 AM,80.6,75.2,84,29.74,3.1,West,18.4,29.9,N/A,Rain,Rain,270,2013-04-16 21:30:00
5:00 AM,75.2,71.6,89,29.77,3.1,West,17.3,-,N/A,Rain,Rain,270,2013-04-16 22:00:00
5:30 AM,77.0,73.4,89,29.77,3.1,WNW,13.8,-,N/A,,Mostly Cloudy,290,2013-04-16 22:30:00
6:00 AM,75.2,71.6,89,29.77,4.3,Variable,3.5,-,N/A,Rain,Light Rain,0,2013-04-16 23:00:00
6:30 AM,75.2,71.6,89,29.80,3.1,WSW,9.2,-,N/A,Rain,Rain,250,2013-04-16 23:30:00
7:00 AM,76,75,95,29.77,5,Calm,Calm,,,Rain-Thunderstorm,Thunderstorms and Rain,,2013-04-17 00:00:00
7:00 AM,75.2,71.6,89,29.80,3.1,Variable,5.8,18.4,N/A,Rain,Rain,0,2013-04-17 00:00:00
7:30 AM,75.2,73.4,94,29.83,3.1,West,6.9,-,N/A,Rain,Rain,280,2013-04-17 00:30:00
8:00 AM,77.0,73.4,89,29.83,0.9,Variable,5.8,-,N/A,Rain,Heavy Rain,0,2013-04-17 01:00:00
8:30 AM,77.0,73.4,89,29.83,4.3,West,15.0,-,N/A,Rain,Light Rain,280,2013-04-17 01:30:00
9:00 AM,78.8,75.2,89,29.86,4.3,WNW,11.5,-,N/A,,Mostly Cloudy,300,2013-04-17 02:00:00
9:30 AM,80.6,75.2,84,29.86,5.0,NNW,8.1,-,N/A,,Mostly Cloudy,330,2013-04-17 02:30:00
10:00 AM,78.8,75.2,89,29.86,4.3,NW,8.1,-,N/A,Rain,Light Rain,320,2013-04-17 03:00:00
10:30 AM,77.0,71.6,83,29.89,1.9,WNW,17.3,-,N/A,Rain,Rain,290,2013-04-17 03:30:00
11:00 AM,77.0,73.4,89,29.86,3.1,West,9.2,-,N/A,Rain,Rain,270,2013-04-17 04:00:00
11:30 AM,78.8,73.4,83,29.86,4.3,WNW,12.7,-,N/A,Rain,Light Rain,290,2013-04-17 04:30:00
12:00 PM,78.8,73.4,83,29.83,5.0,WNW,6.9,-,N/A,,Mostly Cloudy,300,2013-04-17 05:00:00
12:30 PM,78.8,75.2,89,29.83,5.0,Calm,Calm,-,N/A,,Mostly Cloudy,0,2013-04-17 05:30:00
1:00 PM,82,76,76,29.79,5,Calm,Calm,,,,Mist,,2013-04-17 06:00:00
1:00 PM,82.4,75.2,79,29.80,5.0,WNW,9.2,-,N/A,,Mostly Cloudy,290,2013-04-17 06:00:00
1:30 PM,82.4,75.2,79,29.80,5.0,West,9.2,-,N/A,,Mostly Cloudy,280,2013-04-17 06:30:00
2:00 PM,82.4,75.2,79,29.77,5.0,West,9.2,-,N/A,,Mostly Cloudy,270,2013-04-17 07:00:00
2:30 PM,82.4,75.2,79,29.77,5.0,WNW,8.1,-,N/A,,Mostly Cloudy,290,2013-04-17 07:30:00
3:00 PM,82.4,75.2,79,29.77,5.0,WNW,9.2,-,N/A,,Mostly Cloudy,300,2013-04-17 08:00:00
3:30 PM,82.4,75.2,79,29.77,4.3,West,13.8,-,N/A,Rain,Light Rain,270,2013-04-17 08:30:00
4:30 PM,82.4,75.2,79,29.74,5.0,WSW,8.1,-,N/A,,Mostly Cloudy,240,2013-04-17 09:30:00
5:00 PM,82.4,75.2,79,29.77,5.0,WNW,8.1,-,N/A,,Mostly Cloudy,290,2013-04-17 10:00:00
5:30 PM,82.4,75.2,79,29.77,5.0,WNW,5.8,-,N/A,,Mostly Cloudy,290,2013-04-17 10:30:00
6:00 PM,82.4,75.2,79,29.77,5.6,West,8.1,-,N/A,,Mostly Cloudy,280,2013-04-17 11:00:00
6:30 PM,82.4,75.2,79,29.77,5.6,West,5.8,-,N/A,,Mostly Cloudy,270,2013-04-17 11:30:00
7:00 PM,83,77,77,29.75,6,NW,5.8,,,,Scattered Clouds,310,2013-04-17 12:00:00
7:00 PM,82.4,75.2,79,29.77,5.6,WNW,5.8,-,N/A,,Mostly Cloudy,290,2013-04-17 12:00:00
7:30 PM,82.4,75.2,79,29.77,6.2,WNW,9.2,-,N/A,,Mostly Cloudy,290,2013-04-17 12:30:00
8:00 PM,82.4,75.2,79,29.80,6.2,WNW,8.1,-,N/A,,Mostly Cloudy,290,2013-04-17 13:00:00
8:30 PM,82.4,75.2,79,29.80,5.6,West,6.9,-,N/A,,Mostly Cloudy,280,2013-04-17 13:30:00
9:00 PM,82.4,75.2,79,29.80,5.6,West,6.9,-,N/A,,Mostly Cloudy,270,2013-04-17 14:00:00
9:30 PM,82.4,75.2,79,29.80,5.6,West,8.1,-,N/A,,Mostly Cloudy,280,2013-04-17 14:30:00
10:00 PM,82.4,75.2,79,29.80,5.6,West,6.9,-,N/A,,Mostly Cloudy,270,2013-04-17 15:00:00
10:30 PM,82.4,75.2,79,29.80,5.6,West,5.8,-,N/A,,Mostly Cloudy,270,2013-04-17 15:30:00
11:00 PM,82.4,75.2,79,29.80,5.6,WNW,5.8,-,N/A,,Mostly Cloudy,290,2013-04-17 16:00:00
11:30 PM,80.6,75.2,84,29.80,5.6,Variable,2.3,-,N/A,,Mostly Cloudy,0,2013-04-17 16:30:00